Погода в Ровеньках

Россия / Белгородская область     49°55′44″N   38°51′58″E
темп.,
°C
ветер,
м/с
пор.,
м/с
влажн.,
%
обл.,
%
осадки,
мм/ч
давл.,
гПа
погр.,
м
6 мая, чт
чт600:00+9ю346786 0.0 101656
03:00+8ю3569100 0.0 101694
06:00+8ю3774100 0.0 1016159
09:00+13ю6958100 0.0 1015632
12:00+17ю7947100 0.0 10141695
15:00+18ююз6843100 0.0 10122097
18:00+17ююз3659100 0.0 1012203
21:00+14ю3466100 0.0 101278
7 мая, пт
пт700:00+13з3668100 0.0 1013208
03:00+11с2490100 0.2 1014199
06:00+10ссз3692100 0.2 1015421
09:00+13ссв44686 0.2 1016757
12:00+16ссв334885 0.0 10161448
15:00+18св1140100 0.0 10161831
18:00+17юв2349100 0.0 1015715
21:00+12в335840 0.0 101623
8 мая, сб
сб800:00+11юв388283 0.0 1015153
03:00+11юв4985100 0.0 1013208
06:00+11ю41183100 0.0 1013352
09:00+15ююз61060100 0.0 1012660
12:00+15ююз71265100 0.0 1011967
15:00+15ююз51170100 0.2 1010748
18:00+12зсз51091100 0.3 1010390
21:00+10ссз5994100 1.3 1012511
9 мая, вс
вс900:00+8ссз71193100 2.0 1013654
03:00+6с71286100 3.1 1015760
06:00+5с71288100 3.0 1015859
09:00+6ссв61189100 6.7 1016996
12:00+7с81288100 6.3 10161166
15:00+8с91483100 8.4 10161318
18:00+7с91682100 0.6 10171366
21:00+6с81686100 2.8 10191242
10 мая, пн
пн1000:00+6с91789100 1.8 10181057
03:00+6с101891100 7.6 1017973
06:00+6с111991100 6.4 1018915
09:00+6ссв101893100 10.1 1018847
12:00+7ссв91694100 1.3 1019805
15:00+8ссв81496100 1.8 1020728
18:00+8ссв71396100 0.4 1020590
21:00+9св71496100 0.8 1021686